Location: Albany
(35.0000°S, 118.0000°E)
Time: 20:45:26
(UTC-05:00)

Amateur Radio Satellites - All Passes

Search period start: 21 February 2017 20:15
Search period end: 22 February 2017 20:15
Location: Albany, 35.0000°S, 118.0000°E

Satellite Date Start Highest point End Downlink Frequencies (MHz)
Time Altitude Azimuth
SO-50 21 Feb 20:49:54 20:52:33 15° 72° (ENE) 20:55:14 436.795
ESTCUBE 1 21 Feb 20:50:39 20:53:34 17° 113° (ESE) 20:56:31 437.505/2401.250
PRISM 21 Feb 20:51:47 20:56:00 65° 256° (WSW) 21:00:08 437.425
DELFI C3 21 Feb 20:55:17 20:58:28 23° 275° (W) 21:01:42 145.870
FO-29 21 Feb 21:16:29 21:21:24 33° 81° (E) 21:26:41 435.910
YUBILEINY 21 Feb 21:17:23 21:26:19 87° 273° (W) 21:35:11 435.215
UNISAT 6 21 Feb 21:20:48 21:25:09 84° 260° (W) 21:29:28 437.425
TIGRISAT 21 Feb 21:22:26 21:26:46 88° 257° (WSW) 21:31:04 435.000
JUGNU 21 Feb 21:32:46 21:35:51 14° 11° (N) 21:38:55 437.505
VELOX 1 21 Feb 21:34:17 21:37:09 17° 113° (ESE) 21:40:02 145.980
O/OREOS (USA 219) 21 Feb 21:43:57 21:48:05 33° 76° (ENE) 21:52:16 437.305
RS-15 21 Feb 21:49:33 21:52:19 11° 182° (S) 21:55:04 29.354- 29.394
POLYITAN 1 21 Feb 21:53:15 21:55:49 16° 86° (E) 21:58:22 437.675
QB50P2 21 Feb 21:55:41 21:58:39 18° 86° (E) 22:01:35 145.880/145.840
NANOSAT C BR1 21 Feb 21:56:45 21:59:18 16° 86° (E) 22:01:51 145.865
50 SAT 21 Feb 22:06:27 22:09:09 21° 109° (ESE) 22:11:53 437.505
SPROUT 21 Feb 22:12:22 22:16:16 34° 108° (ESE) 22:20:12 437.525
ESTCUBE 1 21 Feb 22:25:48 22:30:01 39° 278° (W) 22:34:18 437.505/2401.250
SO-50 21 Feb 22:28:09 22:32:34 47° 237° (WSW) 22:37:06 436.795
AIST 2D 21 Feb 22:37:44 22:41:17 70° 257° (WSW) 22:44:48 435.315
BUGSAT 1 21 Feb 22:45:15 22:47:51 16° 86° (E) 22:50:24 437.445
FO-29 21 Feb 23:01:49 23:06:22 28° 250° (WSW) 23:11:14 435.910
DUCHIFAT 1 21 Feb 23:05:21 23:09:36 81° 256° (WSW) 23:13:47 145.980
VELOX 1 21 Feb 23:09:03 23:13:14 39° 279° (W) 23:17:30 145.980
EO-79 21 Feb 23:11:22 23:15:33 56° 255° (WSW) 23:19:39 145.935-145.965
DX 1 21 Feb 23:13:53 23:18:17 82° 285° (WNW) 23:22:46 434.975-435.025
YUBILEINY 21 Feb 23:17:39 23:21:42 14° 258° (WSW) 23:25:46 435.215
JUGNU 21 Feb 23:20:12 23:24:08 18° 0° (N) 23:28:03 437.505
O/OREOS (USA 219) 21 Feb 23:24:03 23:27:32 21° 241° (WSW) 23:31:03 437.305
POLYITAN 1 21 Feb 23:27:48 23:31:41 35° 252° (WSW) 23:35:31 437.675
QB50P2 21 Feb 23:30:43 23:34:26 30° 251° (WSW) 23:38:09 145.880/145.840
NANOSAT C BR1 21 Feb 23:31:14 23:35:06 35° 252° (WSW) 23:38:56 145.865
UKube-1 21 Feb 23:34:20 23:38:40 66° 281° (WNW) 23:43:03 .
Oscar 19 21 Feb 23:38:51 23:42:46 21° 85° (E) 23:46:38 437.125/150
50 SAT 21 Feb 23:39:43 23:42:11 18° 275° (W) 23:44:42 437.505
SPROUT 21 Feb 23:49:21 23:52:13 17° 274° (W) 23:55:07 437.525
BEESAT 21 Feb 23:49:57 23:51:05 11° 117° (ESE) 23:52:14 436.000
Gurwin Techsat 1B 21 Feb 23:52:06 23:55:02 15° 88° (E) 23:57:57 435.225
RS-15 22 Feb 00:02:57 00:11:01 22° 145° (SE) 00:19:11 29.354- 29.394
SRMSAT 22 Feb 00:12:28 00:15:36 15° 10° (N) 00:18:44 437.500
PCSat 22 Feb 00:16:07 00:19:58 19° 129° (SE) 00:23:49 145.827
BUGSAT 1 22 Feb 00:19:38 00:23:14 31° 251° (WSW) 00:26:49 437.445
MOZHAYETS 4 22 Feb 00:45:15 00:47:27 13° 115° (ESE) 00:49:39
JUGNU 22 Feb 01:09:13 01:12:25 15° 350° (N) 01:15:36 437.505
ITUPSAT 1 22 Feb 01:14:04 01:18:51 88° 102° (ESE) 01:23:42 437.325
Oscar 19 22 Feb 01:17:16 01:22:10 40° 251° (WSW) 01:27:01 437.125/150
BEESAT 22 Feb 01:23:25 01:28:11 72° 282° (WNW) 01:33:00 436.000
Gurwin Techsat 1B 22 Feb 01:30:01 01:35:18 58° 253° (WSW) 01:40:31 435.225
ITAMSAT 1 22 Feb 01:42:25 01:47:01 30° 83° (E) 01:51:33 435.822/435.867
KKS-1 22 Feb 01:44:37 01:47:17 16° 114° (ESE) 01:49:57 437.445
PCSat 22 Feb 01:58:23 02:03:42 55° 292° (WNW) 02:08:59 145.827
SRMSAT 22 Feb 02:00:06 02:04:02 18° 0° (N) 02:07:57 437.500
AO-7 22 Feb 02:04:16 02:12:03 40° 80° (E) 02:19:46 .
RS-15 22 Feb 02:14:21 02:25:23 78° 120° (ESE) 02:36:51 29.354- 29.394
MOZHAYETS 4 22 Feb 02:19:38 02:24:06 52° 280° (W) 02:28:37
STARS 22 Feb 02:29:01 02:32:19 21° 112° (ESE) 02:35:39 437.465
AO-85 22 Feb 02:34:07 02:34:41 10° 76° (ENE) 02:35:16 145.980
M-CUBED/EXP-1 PRIME 22 Feb 02:39:16 02:43:09 28° 115° (ESE) 02:47:09 437.505
CUBESAT XI-V 22 Feb 03:08:08 03:12:45 75° 104° (ESE) 03:17:28 437.345
KKS-1 22 Feb 03:19:07 03:23:26 44° 279° (W) 03:27:46 437.445
ITAMSAT 1 22 Feb 03:21:56 03:26:19 28° 248° (WSW) 03:30:41 435.822/435.867
SRMSAT 22 Feb 03:49:20 03:52:28 15° 350° (N) 03:55:37 437.500
AO-7 22 Feb 03:57:00 04:04:42 42° 244° (WSW) 04:12:23 .
STARS 22 Feb 04:04:29 04:08:26 31° 277° (W) 04:12:25 437.465
CUTE-I 22 Feb 04:04:51 04:05:51 10° 89° (E) 04:06:51 437.470
AO-85 22 Feb 04:09:47 04:14:20 70° 239° (WSW) 04:19:19 145.980
M-CUBED/EXP-1 PRIME 22 Feb 04:13:35 04:17:26 27° 280° (W) 04:21:26 437.505
XW-2F 22 Feb 04:15:31 04:16:41 11° 88° (E) 04:17:51 145.980 - 146.000
XW-2D 22 Feb 04:17:12 04:18:59 13° 87° (E) 04:20:45 145.860 - 145.880
XW-2B 22 Feb 04:21:50 04:23:58 14° 87° (E) 04:26:05 145.730 - 145.750
RS-15 22 Feb 04:28:31 04:36:35 24° 283° (WNW) 04:44:54 29.354- 29.394
XW-2C 22 Feb 04:29:46 04:32:30 18° 85° (E) 04:35:13 145.795 - 145.815
LilacSat-2 22 Feb 04:41:56 04:45:18 28° 83° (E) 04:48:37 437.200
DOVE 4 22 Feb 04:54:30 04:59:10 46° 82° (E) 05:03:30 437.250
NUDT-PHONESAT 22 Feb 04:54:57 04:58:20 31° 82° (E) 05:01:40 437.300
STRAND 1 22 Feb 05:15:22 05:20:10 42° 109° (ESE) 05:25:01 437.568
XW-2A 22 Feb 05:35:40 05:37:43 15° 86° (E) 05:39:46 145.665 - 145.685
CUTE-I 22 Feb 05:41:01 05:46:24 77° 255° (WSW) 05:51:43 437.470
XW-2F 22 Feb 05:47:23 05:50:59 39° 254° (WSW) 05:54:33 145.980 - 146.000
KAITUO 1B 22 Feb 05:48:57 05:52:36 44° 255° (WSW) 05:56:12 145.475/437.950
XW-2D 22 Feb 05:49:46 05:53:16 34° 254° (WSW) 05:56:45 145.860 - 145.880
XW-2B 22 Feb 05:54:48 05:58:12 31° 253° (WSW) 06:01:35 145.730 - 145.750
BEESAT 3 22 Feb 05:59:27 06:03:23 84° 242° (WSW) 06:07:18 437.485
XW-2C 22 Feb 06:03:30 06:06:38 24° 252° (WSW) 06:09:44 145.795 - 145.815
LilacSat-2 22 Feb 06:16:51 06:19:19 17° 249° (WSW) 06:21:48 437.200
SEEDS 22 Feb 06:28:48 06:32:45 34° 83° (E) 06:36:39 437.485
BEESAT 2 22 Feb 06:29:18 06:33:15 82° 62° (ENE) 06:37:14 435.950
NUDT-PHONESAT 22 Feb 06:29:55 06:31:57 14° 249° (WSW) 06:33:58 437.300
AAUSAT CUBESAT 2 22 Feb 06:30:20 06:33:04 16° 86° (E) 06:35:46 437.432
DOVE 4 22 Feb 06:33:32 06:36:19 15° 245° (WSW) 06:39:00 437.250
HO-68 22 Feb 06:36:44 06:43:57 64° 77° (ENE) 06:51:05 435.675
ISS 22 Feb 06:38:14 06:39:53 13° 53° (NE) 06:41:32 437.550
CUBEBUG 2 22 Feb 06:39:48 06:43:26 28° 83° (E) 06:47:01 437.445
STRAND 1 22 Feb 06:55:50 06:59:28 19° 274° (W) 07:03:08 437.568
CUTE 1.7 + AOD 2 22 Feb 06:59:41 07:03:59 62° 256° (WSW) 07:08:15 437.475
SO-50 22 Feb 07:02:12 07:07:00 61° 121° (ESE) 07:11:45 436.795
XW-2A 22 Feb 07:07:45 07:10:26 22° 252° (WSW) 07:13:05 145.665 - 145.685
AO-73 22 Feb 07:09:32 07:12:35 19° 85° (E) 07:15:39 145.935
Tancredo 1 22 Feb 07:11:12 07:14:07 33° 48° (NE) 07:17:04 437.200
Oscar 11 22 Feb 07:20:34 07:24:08 24° 85° (E) 07:27:40 .
UWE-3 22 Feb 07:24:38 07:28:47 59° 80° (E) 07:32:57 435.000/436.395/437.385
PRISM 22 Feb 07:37:20 07:41:23 54° 105° (ESE) 07:45:31 437.425
ZACube-1 22 Feb 07:53:59 07:58:14 77° 78° (ENE) 08:02:29 437.345
O/OREOS (USA 219) 22 Feb 07:57:04 08:01:18 37° 115° (ESE) 08:05:29 437.305
AAUSAT CUBESAT 2 22 Feb 08:04:45 08:08:34 33° 252° (WSW) 08:12:23 437.432
SEEDS 22 Feb 08:05:18 08:08:08 17° 248° (WSW) 08:10:57 437.485
ISS 22 Feb 08:12:51 08:16:02 45° 218° (SW) 08:19:13 437.550
UNISAT 6 22 Feb 08:15:53 08:20:19 55° 105° (ESE) 08:24:43 437.425
CUBEBUG 2 22 Feb 08:16:49 08:19:51 19° 249° (WSW) 08:22:51 437.445
TIGRISAT 22 Feb 08:17:22 08:21:48 53° 105° (ESE) 08:26:09 435.000
YUBILEINY 22 Feb 08:20:28 08:26:32 21° 99° (E) 08:32:38 435.215
HO-68 22 Feb 08:25:41 08:31:01 23° 241° (WSW) 08:36:20 435.675
DELFI C3 22 Feb 08:34:43 08:38:44 54° 80° (E) 08:42:41 145.870
SO-50 22 Feb 08:44:49 08:46:55 13° 287° (WNW) 08:49:01 436.795
AO-73 22 Feb 08:45:11 08:48:48 28° 252° (WSW) 08:52:26 145.935
Tancredo 1 22 Feb 08:47:54 08:50:28 21° 213° (SSW) 08:53:03 437.200
Oscar 11 22 Feb 08:56:33 09:00:09 25° 250° (WSW) 09:03:44 .
AIST 2D 22 Feb 09:09:22 09:12:12 23° 108° (ESE) 09:15:03 435.315
FO-29 22 Feb 09:09:31 09:15:43 81° 105° (ESE) 09:21:18 435.910
O/OREOS (USA 219) 22 Feb 09:37:27 09:40:20 17° 279° (W) 09:43:12 437.305
DUCHIFAT 1 22 Feb 09:53:30 09:57:34 45° 106° (ESE) 10:01:40 145.980
UNISAT 6 22 Feb 09:55:56 09:57:17 11° 272° (W) 09:58:38 437.425
TIGRISAT 22 Feb 09:57:05 09:58:42 12° 272° (W) 10:00:19 435.000
EO-79 22 Feb 09:59:51 10:04:06 68° 104° (ESE) 10:08:23 145.935-145.965
DELFI C3 22 Feb 10:12:36 10:12:59 10° 246° (WSW) 10:13:22 145.870
YUBILEINY 22 Feb 10:13:45 10:22:24 69° 261° (W) 10:31:11 435.215
POLYITAN 1 22 Feb 10:16:13 10:20:29 76° 283° (WNW) 10:24:48 437.675
QB50P2 22 Feb 10:19:03 10:23:18 64° 281° (W) 10:27:35 145.880/145.840
NANOSAT C BR1 22 Feb 10:19:07 10:23:24 77° 281° (W) 10:27:42 145.865
ESTCUBE 1 22 Feb 10:21:09 10:25:41 55° 80° (E) 10:30:10 437.505/2401.250
AIST 2D 22 Feb 10:43:06 10:45:22 16° 274° (W) 10:47:39 435.315
Oscar 19 22 Feb 10:52:35 10:56:33 23° 113° (ESE) 11:00:33 437.125/150
FO-29 22 Feb 10:59:54 11:01:08 11° 273° (W) 11:02:21 435.910
VELOX 1 22 Feb 11:02:05 11:06:28 49° 80° (E) 11:10:46 145.980
BUGSAT 1 22 Feb 11:04:56 11:09:10 74° 282° (WNW) 11:13:26 437.445
DX 1 22 Feb 11:06:05 11:09:32 22° 84° (E) 11:12:56 434.975-435.025
50 SAT 22 Feb 11:06:47 11:10:10 35° 81° (E) 11:13:28 437.505
Gurwin Techsat 1B 22 Feb 11:09:53 11:13:27 18° 115° (ESE) 11:17:03 435.225
UKube-1 22 Feb 11:25:07 11:28:47 25° 84° (E) 11:32:23 .
DUCHIFAT 1 22 Feb 11:31:42 11:33:26 12° 272° (W) 11:35:11 145.980
SPROUT 22 Feb 11:36:38 11:40:57 79° 257° (WSW) 11:45:13 437.525
ESTCUBE 1 22 Feb 11:59:54 12:01:57 13° 245° (WSW) 12:03:58 437.505/2401.250
YUBILEINY 22 Feb 12:19:24 12:20:55 10° 241° (WSW) 12:22:27 435.215
Oscar 19 22 Feb 12:30:47 12:35:34 38° 278° (W) 12:40:26 437.125/150
VELOX 1 22 Feb 12:40:11 12:42:26 14° 245° (WSW) 12:44:40 145.980
50 SAT 22 Feb 12:41:39 12:42:54 11° 247° (WSW) 12:44:07 437.505
DX 1 22 Feb 12:41:54 12:45:39 27° 250° (WSW) 12:49:22 434.975-435.025
AO-85 22 Feb 12:44:12 12:49:23 45° 124° (SE) 12:54:24 145.980
Gurwin Techsat 1B 22 Feb 12:47:46 12:52:56 50° 280° (W) 12:58:10 435.225
ITAMSAT 1 22 Feb 12:57:04 13:01:45 34° 110° (ESE) 13:06:28 435.822/435.867
AO-7 22 Feb 12:59:41 13:07:17 42° 116° (ESE) 13:14:58 .
UKube-1 22 Feb 13:01:10 13:04:40 23° 249° (WSW) 13:08:07 .
ITUPSAT 1 22 Feb 13:18:16 13:22:28 29° 83° (E) 13:26:37 437.325
BEESAT 22 Feb 13:27:00 13:31:28 37° 82° (E) 13:35:53 436.000
Tancredo 1 22 Feb 13:41:34 13:43:20 14° 152° (SSE) 13:45:06 437.200
MOZHAYETS 4 22 Feb 14:17:46 14:22:15 45° 81° (E) 14:26:42
BEESAT 3 22 Feb 14:20:03 14:22:51 19° 128° (SE) 14:25:39 437.485
AO-85 22 Feb 14:25:30 14:29:31 22° 288° (WNW) 14:33:26 145.980
RS-15 22 Feb 14:30:22 14:33:44 12° 82° (E) 14:37:04 29.354- 29.394
ITAMSAT 1 22 Feb 14:37:00 14:41:13 25° 276° (W) 14:45:28 435.822/435.867
ISS 22 Feb 14:43:09 14:46:21 41° 142° (SE) 14:49:31 437.550
BEESAT 2 22 Feb 14:50:56 14:53:35 17° 129° (SE) 14:56:12 435.950
AO-7 22 Feb 14:52:22 14:59:57 40° 280° (W) 15:07:40 .
PCSat 22 Feb 14:53:58 14:58:39 30° 72° (ENE) 15:03:22 145.827
ITUPSAT 1 22 Feb 14:56:12 15:00:08 25° 249° (WSW) 15:04:02 437.325
BEESAT 22 Feb 15:05:28 15:08:56 20° 247° (WSW) 15:12:24 436.000
CUBESAT XI-V 22 Feb 15:08:33 15:12:26 24° 85° (E) 15:16:16 437.345
KKS-1 22 Feb 15:13:12 15:17:31 44° 81° (E) 15:21:45 437.445
Tancredo 1 22 Feb 15:16:41 15:19:58 76° 315° (NW) 15:23:15 437.200
CUTE-I 22 Feb 15:22:29 15:25:20 15° 117° (ESE) 15:28:11 437.470
DOVE 4 22 Feb 15:55:30 16:00:17 36° 109° (ESE) 16:05:10 437.250
M-CUBED/EXP-1 PRIME 22 Feb 15:55:50 15:59:30 29° 80° (E) 16:02:54 437.505
MOZHAYETS 4 22 Feb 15:56:16 15:58:59 16° 246° (WSW) 16:01:42
STARS 22 Feb 15:56:29 16:00:53 60° 79° (E) 16:05:12 437.465
BEESAT 3 22 Feb 15:57:08 16:00:27 28° 293° (WNW) 16:03:45 437.485
ISS 22 Feb 16:20:34 16:22:32 15° 307° (NW) 16:24:29 437.550
XW-2F 22 Feb 16:24:35 16:28:16 55° 104° (ESE) 16:32:00 145.980 - 146.000
KAITUO 1B 22 Feb 16:25:26 16:29:01 46° 105° (ESE) 16:32:38 145.475/437.950
XW-2D 22 Feb 16:27:08 16:30:53 65° 104° (ESE) 16:34:41 145.860 - 145.880
BEESAT 2 22 Feb 16:27:54 16:31:25 33° 294° (WNW) 16:34:55 435.950
XW-2B 22 Feb 16:32:04 16:35:50 73° 103° (ESE) 16:39:40 145.730 - 145.750
RS-15 22 Feb 16:32:54 16:44:08 72° 66° (ENE) 16:55:00 29.354- 29.394
PCSat 22 Feb 16:37:07 16:41:56 32° 236° (SW) 16:46:47 145.827
XW-2C 22 Feb 16:40:33 16:44:20 84° 284° (WNW) 16:48:10 145.795 - 145.815
CUBESAT XI-V 22 Feb 16:45:38 16:49:44 29° 250° (WSW) 16:53:48 437.345
KKS-1 22 Feb 16:51:05 16:53:38 15° 246° (WSW) 16:56:10 437.445
LilacSat-2 22 Feb 16:53:59 16:57:42 51° 280° (W) 17:01:27 437.200
CUTE-I 22 Feb 16:59:25 17:04:45 65° 282° (WNW) 17:10:09 437.470
HO-68 22 Feb 17:02:06 17:08:23 34° 115° (ESE) 17:14:42 435.675
NUDT-PHONESAT 22 Feb 17:04:23 17:07:59 47° 279° (W) 17:11:38 437.300
SEEDS 22 Feb 17:18:16 17:20:51 16° 112° (ESE) 17:23:27 437.485
STRAND 1 22 Feb 17:30:05 17:33:38 19° 86° (E) 17:37:09 437.568
M-CUBED/EXP-1 PRIME 22 Feb 17:30:37 17:33:42 20° 242° (WSW) 17:36:37 437.505
DOVE 4 22 Feb 17:33:39 17:37:56 25° 274° (W) 17:42:19 437.250
XW-2A 22 Feb 17:34:57 17:38:22 63° 104° (ESE) 17:41:49 145.665 - 145.685
CUBEBUG 2 22 Feb 17:35:10 17:38:12 18° 111° (ESE) 17:41:12 437.445
STARS 22 Feb 17:35:25 17:36:39 11° 244° (WSW) 17:37:52 437.465
CUTE 1.7 + AOD 2 22 Feb 17:48:36 17:52:44 58° 104° (ESE) 17:56:57 437.475
AO-73 22 Feb 18:04:00 18:05:00 11° 114° (ESE) 18:06:00 145.935
Oscar 11 22 Feb 18:13:38 18:15:35 13° 114° (ESE) 18:17:32 .
UWE-3 22 Feb 18:18:16 18:22:13 32° 108° (ESE) 18:26:07 435.000/436.395/437.385
ZACube-1 22 Feb 18:46:22 18:50:24 38° 107° (ESE) 18:54:23 437.345
RS-15 22 Feb 18:47:43 18:57:19 32° 224° (SW) 19:06:49 29.354- 29.394
HO-68 22 Feb 18:49:13 18:55:52 41° 279° (W) 19:02:38 435.675
AAUSAT CUBESAT 2 22 Feb 18:50:42 18:54:50 82° 284° (WNW) 18:59:03 437.432
SEEDS 22 Feb 18:52:21 18:56:12 35° 277° (W) 19:00:07 437.485
STRAND 1 22 Feb 19:08:05 19:12:57 43° 252° (WSW) 19:17:47 437.568
CUBEBUG 2 22 Feb 19:10:18 19:14:32 37° 278° (W) 19:18:41 437.445
DELFI C3 22 Feb 19:17:38 19:20:33 20° 110° (ESE) 19:23:30 145.870
AO-73 22 Feb 19:36:28 19:40:43 57° 280° (W) 19:44:57 145.935
Oscar 11 22 Feb 19:47:03 19:51:13 48° 279° (W) 19:55:28 .
UWE-3 22 Feb 19:55:33 19:58:40 19° 275° (W) 20:01:46 435.000/436.395/437.385
